Torna al catalogo

STARLINK-37700

AttivoComunicazioniSSO
NORAD 69215·PAYLOAD·🇺🇸 United States

Lanciato May 26, 2026 da Vandenberg Space Force Base

Loading…

Prossimi Passaggi (prossime 24 ore)

TLE

AggiornatoSource: CelesTrak SupGP

Epoca: Sep 14, 2026, 23:19 UTC

1 69215C 26115E   26257.97201389  .00039089  00000+0  12134-2 0  2577
2 69215  97.2832 274.0957 0001366  90.3209 149.3113 15.33419565    14

Traccia STARLINK-37700 in tempo reale con AllMySat

Download on the App Store